| time (UTC) | temp F | wind direction | speed MPH | gust MPH | rain 1hr in | rain 24hr in | rain mn in | humidity % | barometer mb |
| 20260904191006 | 82 | 69 | 5.0 | 12.0 | 0.00 | 0.00 | 0.00 | 78 | 1016.5 |
| 20260904190506 | 82 | 79 | 7.0 | 12.0 | 0.00 | 0.00 | 0.00 | 76 | 1016.3 |
| 20260904190019 | 82 | 41 | 3.0 | 14.0 | 0.00 | 0.00 | 0.00 | 78 | 1016.5 |
| 20260904185508 | 82 | 68 | 8.0 | 14.0 | 0.00 | 0.00 | 0.00 | 78 | 1016.4 |
| 20260904185009 | 81 | 56 | 4.0 | 10.0 | 0.00 | 0.00 | 0.00 | 79 | 1016.1 |
| 20260904184530 | 81 | 49 | 4.0 | 8.0 | 0.00 | 0.00 | 0.00 | 79 | 1016.3 |
| 20260904184012 | 81 | 50 | 3.0 | 11.0 | 0.00 | 0.00 | 0.00 | 79 | 1016.6 |
| 20260904183512 | 82 | 38 | 3.0 | 16.0 | 0.00 | 0.00 | 0.00 | 78 | 1017.0 |
| 20260904183027 | 82 | 48 | 6.0 | 16.0 | 0.00 | 0.00 | 0.00 | 78 | 1017.1 |
| 20260904182516 | 82 | 46 | 3.0 | 6.0 | 0.00 | 0.00 | 0.00 | 79 | 1017.1 |
| 20260904182018 | 81 | 41 | 2.0 | 5.0 | 0.00 | 0.00 | 0.00 | 80 | 1016.7 |
| 20260904181514 | 81 | 32 | 3.0 | 5.0 | 0.00 | 0.00 | 0.00 | 79 | 1016.3 |
| 20260904181008 | 82 | 32 | 3.0 | 12.0 | 0.00 | 0.00 | 0.00 | 77 | 1016.2 |
| 20260904180503 | 83 | 43 | 3.0 | 12.0 | 0.00 | 0.00 | 0.00 | 75 | 1016.2 |
| 20260904180009 | 85 | 76 | 3.0 | 10.0 | 0.00 | 0.00 | 0.00 | 71 | 1016.3 |
| 20260904175508 | 89 | 65 | 3.0 | 6.0 | 0.00 | 0.00 | 0.00 | 66 | 1016.2 |
| 20260904175007 | 91 | 344 | 3.0 | 8.0 | 0.00 | 0.00 | 0.00 | 61 | 1016.0 |
| 20260904174516 | 91 | 311 | 4.0 | 9.0 | 0.00 | 0.00 | 0.00 | 59 | 1015.9 |
| 20260904174009 | 91 | 332 | 4.0 | 10.0 | 0.00 | 0.00 | 0.00 | 59 | 1016.1 |
| 20260904173515 | 91 | 327 | 6.0 | 10.0 | 0.00 | 0.00 | 0.00 | 56 | 1016.0 |
| 20260904173043 | 92 | 342 | 4.0 | 9.0 | 0.00 | 0.00 | 0.00 | 58 | 1016.1 |
| 20260904172513 | 92 | 305 | 3.0 | 8.0 | 0.00 | 0.00 | 0.00 | 58 | 1016.1 |
| 20260904172012 | 92 | 337 | 3.0 | 8.0 | 0.00 | 0.00 | 0.00 | 58 | 1016.1 |
| 20260904171531 | 91 | 327 | 3.0 | 8.0 | 0.00 | 0.00 | 0.00 | 59 | 1016.1 |
| 20260904171016 | 91 | 300 | 2.0 | 6.0 | 0.00 | 0.00 | 0.00 | 58 | 1016.2 |
| 20260904170504 | 91 | 240 | 3.0 | 8.0 | 0.00 | 0.00 | 0.00 | 59 | 1016.3 |
| 20260904170010 | 91 | 333 | 3.0 | 8.0 | 0.00 | 0.00 | 0.00 | 58 | 1016.4 |
| 20260904165504 | 91 | 5 | 4.0 | 9.0 | 0.00 | 0.00 | 0.00 | 59 | 1016.5 |
| 20260904165005 | 91 | 342 | 6.0 | 9.0 | 0.00 | 0.00 | 0.00 | 57 | 1016.6 |
| 20260904164528 | 91 | 298 | 4.0 | 9.0 | 0.00 | 0.00 | 0.00 | 58 | 1016.7 |
| 20260904164008 | 91 | 321 | 3.0 | 9.0 | 0.00 | 0.00 | 0.00 | 58 | 1016.7 |
| 20260904163507 | 91 | 348 | 4.0 | 9.0 | 0.00 | 0.00 | 0.00 | 58 | 1016.7 |
| 20260904163021 | 90 | 325 | 3.0 | 11.0 | 0.00 | 0.00 | 0.00 | 59 | 1016.7 |
| 20260904162510 | 90 | 328 | 3.0 | 11.0 | 0.00 | 0.00 | 0.00 | 59 | 1016.7 |
| 20260904162013 | 90 | 352 | 4.0 | 9.0 | 0.00 | 0.00 | 0.00 | 59 | 1016.8 |
| 20260904161531 | 90 | 321 | 5.0 | 9.0 | 0.00 | 0.00 | 0.00 | 60 | 1016.8 |
| 20260904161015 | 90 | 296 | 4.0 | 8.0 | 0.00 | 0.00 | 0.00 | 60 | 1016.7 |
| 20260904160513 | 90 | 230 | 2.0 | 8.0 | 0.00 | 0.00 | 0.00 | 62 | 1016.7 |
| 20260904160032 | 89 | 329 | 4.0 | 8.0 | 0.00 | 0.00 | 0.00 | 62 | 1016.7 |
| 20260904155504 | 89 | 304 | 3.0 | 6.0 | 0.00 | 0.00 | 0.00 | 61 | 1016.7 |
| 20260904155004 | 89 | 327 | 2.0 | 6.0 | 0.00 | 0.00 | 0.00 | 63 | 1016.7 |
| 20260904154512 | 89 | 9 | 4.0 | 9.0 | 0.00 | 0.00 | 0.00 | 64 | 1016.7 |
| 20260904154008 | 89 | 273 | 5.0 | 9.0 | 0.00 | 0.00 | 0.00 | 64 | 1016.7 |
| 20260904153512 | 88 | 316 | 2.0 | 7.0 | 0.00 | 0.00 | 0.00 | 66 | 1016.7 |
| 20260904153016 | 88 | 318 | 4.0 | 7.0 | 0.00 | 0.00 | 0.00 | 65 | 1016.6 |
| 20260904152511 | 88 | 290 | 3.0 | 9.0 | 0.00 | 0.00 | 0.00 | 66 | 1016.6 |
| 20260904152015 | 88 | 322 | 3.0 | 9.0 | 0.00 | 0.00 | 0.00 | 67 | 1016.6 |
| 20260904151526 | 87 | 307 | 4.0 | 6.0 | 0.00 | 0.00 | 0.00 | 67 | 1016.6 |
| 20260904151014 | 87 | 341 | 3.0 | 5.0 | 0.00 | 0.00 | 0.00 | 68 | 1016.6 |
| 20260904150512 | 87 | 340 | 2.0 | 8.0 | 0.00 | 0.00 | 0.00 | 67 | 1016.6 |
| 20260904150034 | 87 | 318 | 3.0 | 9.0 | 0.00 | 0.00 | 0.00 | 68 | 1016.6 |
| 20260904145514 | 86 | 269 | 3.0 | 10.0 | 0.00 | 0.00 | 0.00 | 67 | 1016.6 |
| 20260904145014 | 86 | 318 | 4.0 | 10.0 | 0.00 | 0.00 | 0.00 | 68 | 1016.5 |
| 20260904144508 | 86 | 341 | 3.0 | 5.0 | 0.00 | 0.00 | 0.00 | 69 | 1016.4 |
| 20260904144007 | 85 | 304 | 1.0 | 6.0 | 0.00 | 0.00 | 0.00 | 69 | 1016.3 |
| 20260904143507 | 85 | 317 | 2.0 | 6.0 | 0.00 | 0.00 | 0.00 | 70 | 1016.3 |
| 20260904143016 | 85 | 325 | 2.0 | 5.0 | 0.00 | 0.00 | 0.00 | 71 | 1016.3 |
| 20260904142509 | 85 | 206 | 2.0 | 5.0 | 0.00 | 0.00 | 0.00 | 70 | 1016.3 |
| 20260904142012 | 84 | 334 | 3.0 | 5.0 | 0.00 | 0.00 | 0.00 | 70 | 1016.3 |
| 20260904141534 | 84 | 255 | 2.0 | 5.0 | 0.00 | 0.00 | 0.00 | 71 | 1016.3 |
| 20260904141013 | 84 | 230 | 1.0 | 4.0 | 0.00 | 0.00 | 0.00 | 72 | 1016.3 |
| 20260904140516 | 84 | 316 | 2.0 | 4.0 | 0.00 | 0.00 | 0.00 | 72 | 1016.3 |
| 20260904140003 | 83 | 233 | 1.0 | 4.0 | 0.00 | 0.00 | 0.00 | 73 | 1016.3 |
| 20260904135507 | 83 | 333 | 1.0 | 4.0 | 0.00 | 0.00 | 0.00 | 73 | 1016.3 |
| 20260904135004 | 83 | 213 | 1.0 | 5.0 | 0.00 | 0.00 | 0.00 | 73 | 1016.3 |
| 20260904134507 | 83 | 211 | 2.0 | 9.0 | 0.00 | 0.00 | 0.00 | 74 | 1016.2 |
| 20260904134007 | 82 | 313 | 2.0 | 9.0 | 0.00 | 0.00 | 0.00 | 73 | 1016.2 |
| 20260904133503 | 82 | 211 | 3.0 | 7.0 | 0.00 | 0.00 | 0.00 | 74 | 1016.2 |
| 20260904133018 | 82 | 279 | 2.0 | 7.0 | 0.00 | 0.00 | 0.00 | 75 | 1016.1 |
| 20260904132511 | 81 | 342 | 2.0 | 5.0 | 0.00 | 0.00 | 0.00 | 76 | 1016.1 |
| 20260904132011 | 81 | 207 | 2.0 | 5.0 | 0.00 | 0.00 | 0.00 | 77 | 1016.2 |
| 20260904131532 | 80 | 240 | 2.0 | 4.0 | 0.00 | 0.00 | 0.00 | 77 | 1016.1 |
| 20260904131011 | 80 | 238 | 2.0 | 4.0 | 0.00 | 0.00 | 0.00 | 79 | 1016.1 |
| 20260904130513 | 79 | 255 | 0.0 | 4.0 | 0.00 | 0.00 | 0.00 | 80 | 1016.1 |
| 20260904130028 | 79 | 201 | 1.0 | 3.0 | 0.00 | 0.00 | 0.00 | 80 | 1016.1 |
| 20260904125513 | 79 | 221 | 1.0 | 3.0 | 0.00 | 0.00 | 0.00 | 81 | 1016.1 |
| 20260904125003 | 78 | 200 | 2.0 | 3.0 | 0.00 | 0.00 | 0.00 | 81 | 1016.2 |
| 20260904124507 | 78 | 193 | 2.0 | 3.0 | 0.00 | 0.00 | 0.00 | 82 | 1016.3 |
| 20260904124004 | 78 | 211 | 1.0 | 2.0 | 0.00 | 0.00 | 0.00 | 82 | 1016.2 |
| 20260904123508 | 77 | 207 | 0.0 | 2.0 | 0.00 | 0.00 | 0.00 | 82 | 1016.2 |
| 20260904123011 | 77 | 207 | 1.0 | 2.0 | 0.00 | 0.00 | 0.00 | 82 | 1016.3 |
| 20260904122507 | 77 | 214 | 1.0 | 2.0 | 0.00 | 0.00 | 0.00 | 82 | 1016.3 |
| 20260904122013 | 77 | 217 | 1.0 | 1.0 | 0.00 | 0.00 | 0.00 | 82 | 1016.3 |
| 20260904121519 | 76 | 217 | 1.0 | 2.0 | 0.00 | 0.00 | 0.00 | 82 | 1016.3 |
| 20260904121011 | 76 | 217 | 0.0 | 2.0 | 0.00 | 0.00 | 0.00 | 82 | 1016.3 |
| 20260904120510 | 76 | 217 | 0.0 | 2.0 | 0.00 | 0.00 | 0.00 | 82 | 1016.2 |
| 20260904120026 | 76 | 217 | 0.0 | 2.0 | 0.00 | 0.00 | 0.00 | 82 | 1016.2 |
| 20260904115514 | 76 | 217 | 0.0 | 2.0 | 0.00 | 0.00 | 0.00 | 82 | 1016.1 |
| 20260904115015 | 76 | 217 | 1.0 | 2.0 | 0.00 | 0.00 | 0.00 | 82 | 1016.1 |
| 20260904114530 | 76 | 205 | 0.0 | 2.0 | 0.00 | 0.00 | 0.00 | 82 | 1015.9 |
| 20260904114004 | 76 | 215 | 0.0 | 2.0 | 0.00 | 0.00 | 0.00 | 82 | 1015.9 |
| 20260904113506 | 76 | 215 | 0.0 | 2.0 | 0.00 | 0.00 | 0.00 | 1015.7 | |
| 20260904113009 | 76 | 215 | 1.0 | 2.0 | 0.00 | 0.00 | 0.00 | 81 | 1015.6 |
| 20260904112506 | 76 | 225 | 1.0 | 2.0 | 0.00 | 0.00 | 0.00 | 81 | 1015.5 |
| 20260904112007 | 76 | 209 | 1.0 | 4.0 | 0.00 | 0.00 | 0.00 | 80 | 1015.4 |
| 20260904111513 | 77 | 233 | 1.0 | 5.0 | 0.00 | 0.00 | 0.00 | 80 | 1015.2 |
| 20260904111008 | 77 | 220 | 2.0 | 6.0 | 0.00 | 0.00 | 0.00 | 80 | 1014.9 |
| 20260904110512 | 76 | 221 | 2.0 | 6.0 | 0.00 | 0.00 | 0.00 | 81 | 1014.7 |
| 20260904110025 | 76 | 219 | 3.0 | 6.0 | 0.00 | 0.00 | 0.00 | 81 | 1014.7 |
| 20260904105515 | 76 | 211 | 2.0 | 4.0 | 0.00 | 0.00 | 0.00 | 81 | 1014.8 |
| 20260904105013 | 76 | 209 | 1.0 | 3.0 | 0.00 | 0.00 | 0.00 | 81 | 1014.9 |
| 20260904104534 | 76 | 197 | 1.0 | 2.0 | 0.00 | 0.00 | 0.00 | 81 | 1014.9 |
| 20260904104016 | 76 | 215 | 0.0 | 2.0 | 0.00 | 0.00 | 0.00 | 81 | 1014.9 |
| 20260904103517 | 76 | 215 | 1.0 | 2.0 | 0.00 | 0.00 | 0.00 | 81 | 1014.9 |
| 20260904103008 | 76 | 230 | 1.0 | 2.0 | 0.00 | 0.00 | 0.00 | 81 | 1014.8 |
| 20260904102504 | 76 | 218 | 1.0 | 2.0 | 0.00 | 0.00 | 0.00 | 81 | 1014.8 |
| 20260904102006 | 76 | 219 | 0.0 | 2.0 | 0.00 | 0.00 | 0.00 | 81 | 1014.9 |
| 20260904101514 | 76 | 215 | 0.0 | 2.0 | 0.00 | 0.00 | 0.00 | 81 | 1014.7 |
| 20260904101007 | 76 | 215 | 1.0 | 2.0 | 0.00 | 0.00 | 0.00 | 81 | 1014.8 |
| 20260904100508 | 76 | 215 | 0.0 | 2.0 | 0.00 | 0.00 | 0.00 | 81 | 1014.9 |
| 20260904100018 | 76 | 215 | 1.0 | 2.0 | 0.00 | 0.00 | 0.00 | 81 | 1014.9 |
| 20260904095511 | 76 | 257 | 1.0 | 1.0 | 0.00 | 0.00 | 0.00 | 81 | 1014.9 |
| 20260904095013 | 76 | 273 | 0.0 | 2.0 | 0.00 | 0.00 | 0.00 | 81 | 1015.0 |
| 20260904094534 | 76 | 272 | 0.0 | 2.0 | 0.00 | 0.00 | 0.00 | 81 | 1015.0 |
| 20260904094012 | 76 | 273 | 0.0 | 2.0 | 0.00 | 0.00 | 0.00 | 81 | 1015.0 |
| 20260904093516 | 76 | 222 | 0.0 | 3.0 | 0.00 | 0.00 | 0.00 | 80 | 1015.0 |
| 20260904093031 | 77 | 220 | 0.0 | 3.0 | 0.00 | 0.00 | 0.00 | 80 | 1014.9 |
| 20260904092515 | 77 | 205 | 1.0 | 3.0 | 0.00 | 0.00 | 0.00 | 80 | 1014.9 |
| 20260904092004 | 77 | 211 | 1.0 | 3.0 | 0.00 | 0.00 | 0.00 | 80 | 1015.0 |
| 20260904091525 | 77 | 227 | 1.0 | 3.0 | 0.00 | 0.00 | 0.00 | 80 | 1015.1 |
| 20260904091006 | 77 | 217 | 1.0 | 3.0 | 0.00 | 0.00 | 0.00 | 80 | 1014.8 |
| 20260904090509 | 77 | 205 | 1.0 | 4.0 | 0.00 | 0.00 | 0.00 | 80 | 1014.7 |
| 20260904090015 | 77 | 225 | 2.0 | 4.0 | 0.00 | 0.00 | 0.00 | 79 | 1014.7 |
| 20260904085508 | 77 | 212 | 2.0 | 4.0 | 0.00 | 0.00 | 0.00 | 80 | 1014.7 |
| 20260904085013 | 77 | 216 | 2.0 | 4.0 | 0.00 | 0.00 | 0.00 | 80 | 1014.4 |
| 20260904084523 | 77 | 207 | 2.0 | 4.0 | 0.00 | 0.00 | 0.00 | 81 | 1014.4 |
| 20260904084014 | 77 | 207 | 2.0 | 4.0 | 0.00 | 0.00 | 0.00 | 81 | 1014.5 |
| 20260904083515 | 76 | 207 | 2.0 | 5.0 | 0.00 | 0.00 | 0.00 | 81 | 1014.5 |
| 20260904083033 | 76 | 215 | 2.0 | 5.0 | 0.00 | 0.00 | 0.00 | 81 | 1014.5 |
| 20260904082515 | 76 | 205 | 2.0 | 3.0 | 0.00 | 0.00 | 0.00 | 82 | 1014.6 |
| 20260904082012 | 76 | 222 | 1.0 | 3.0 | 0.00 | 0.00 | 0.00 | 83 | 1014.7 |
| 20260904081533 | 76 | 209 | 1.0 | 4.0 | 0.00 | 0.00 | 0.00 | 83 | 1014.8 |
| 20260904081004 | 76 | 194 | 2.0 | 4.0 | 0.00 | 0.00 | 0.00 | 1014.7 | |
| 20260904080503 | 76 | 194 | 2.0 | 3.0 | 0.00 | 0.00 | 0.00 | 84 | 1014.9 |
| 20260904080014 | 75 | 202 | 2.0 | 2.0 | 0.00 | 0.00 | 0.00 | 84 | 1015.0 |
| 20260904075508 | 75 | 204 | 1.0 | 3.0 | 0.00 | 0.00 | 0.00 | 84 | 1015.1 |
| 20260904075011 | 75 | 204 | 2.0 | 3.0 | 0.00 | 0.00 | 0.00 | 84 | 1015.1 |
| 20260904074532 | 75 | 202 | 1.0 | 2.0 | 0.00 | 0.00 | 0.00 | 85 | 1015.1 |
| 20260904074013 | 75 | 202 | 1.0 | 3.0 | 0.00 | 0.00 | 0.00 | 85 | 1015.2 |
| 20260904073512 | 75 | 212 | 1.0 | 3.0 | 0.00 | 0.00 | 0.00 | 85 | 1015.2 |
| 20260904073031 | 74 | 200 | 1.0 | 2.0 | 0.00 | 0.00 | 0.00 | 86 | 1015.3 |
| 20260904072516 | 74 | 200 | 0.0 | 2.0 | 0.00 | 0.00 | 0.00 | 86 | 1015.4 |
| 20260904072014 | 74 | 200 | 1.0 | 2.0 | 0.00 | 0.00 | 0.00 | 86 | 1015.4 |
| 20260904071546 | 74 | 200 | 1.0 | 2.0 | 0.00 | 0.00 | 0.00 | 86 | 1015.4 |
| 20260904071019 | 74 | 200 | 1.0 | 2.0 | 0.00 | 0.00 | 0.00 | 86 | 1015.5 |
| 20260904070516 | 74 | 200 | 1.0 | 2.0 | 0.00 | 0.00 | 0.00 | 86 | 1015.6 |
| 20260904070011 | 74 | 200 | 0.0 | 1.0 | 0.00 | 0.00 | 0.00 | 86 | 1015.6 |
| 20260904065507 | 74 | 200 | 1.0 | 2.0 | 0.00 | 0.00 | 0.00 | 85 | 1015.7 |
| 20260904065007 | 74 | 200 | 0.0 | 2.0 | 0.00 | 0.00 | 0.00 | 86 | 1015.6 |
| 20260904064516 | 74 | 200 | 0.0 | 2.0 | 0.00 | 0.00 | 0.00 | 86 | 1015.7 |
| 20260904064008 | 74 | 200 | 0.0 | 2.0 | 0.00 | 0.00 | 0.00 | 86 | 1015.7 |
| 20260904063512 | 73 | 200 | 0.0 | 3.0 | 0.00 | 0.00 | 0.00 | 86 | 1015.7 |
| 20260904063037 | 73 | 200 | 1.0 | 3.0 | 0.00 | 0.00 | 0.00 | 86 | 1015.6 |
| 20260904062513 | 73 | 199 | 1.0 | 3.0 | 0.00 | 0.00 | 0.00 | 86 | 1015.6 |
| 20260904062015 | 73 | 205 | 1.0 | 2.0 | 0.00 | 0.00 | 0.00 | 86 | 1015.7 |
| 20260904061530 | 73 | 205 | 0.0 | 2.0 | 0.00 | 0.00 | 0.00 | 87 | 1015.8 |
| 20260904061018 | 73 | 205 | 0.0 | 2.0 | 0.00 | 0.00 | 0.00 | 86 | 1015.8 |
| 20260904060519 | 73 | 205 | 0.0 | 2.0 | 0.00 | 0.00 | 0.00 | 86 | 1015.9 |
| 20260904060033 | 73 | 205 | 0.0 | 2.0 | 0.00 | 0.00 | 0.00 | 86 | 1015.9 |
| 20260904055521 | 73 | 205 | 1.0 | 3.0 | 0.00 | 0.00 | 0.00 | 86 | 1016.0 |
| 20260904055007 | 73 | 195 | 2.0 | 3.0 | 0.00 | 0.00 | 0.00 | 86 | 1015.9 |
| 20260904054515 | 73 | 214 | 0.0 | 2.0 | 0.00 | 0.00 | 0.00 | 86 | 1016.0 |
| 20260904054001 | 73 | 206 | 1.0 | 2.0 | 0.00 | 0.00 | 0.00 | 86 | 1016.0 |
| 20260904053502 | 73 | 206 | 0.0 | 2.0 | 0.00 | 0.00 | 0.00 | 85 | 1016.0 |
| 20260904053005 | 73 | 206 | 1.0 | 2.0 | 0.00 | 0.00 | 0.00 | 86 | 1016.0 |
| 20260904052503 | 73 | 206 | 1.0 | 1.0 | 0.00 | 0.00 | 0.00 | 85 | 1016.1 |
| 20260904052003 | 73 | 206 | 0.0 | 2.0 | 0.00 | 0.00 | 0.00 | 85 | 1016.0 |
| 20260904051504 | 73 | 206 | 0.0 | 2.0 | 0.00 | 0.00 | 0.00 | 86 | 1016.1 |
| 20260904051003 | 73 | 206 | 0.0 | 3.0 | 0.00 | 0.00 | 0.00 | 86 | 1016.0 |
| 20260904050504 | 72 | 202 | 1.0 | 3.0 | 0.00 | 0.00 | 0.00 | 86 | 1016.0 |
| 20260904050003 | 72 | 180 | 0.0 | 2.0 | 0.00 | 0.00 | 0.00 | 86 | 1016.1 |
| 20260904045505 | 72 | 180 | 0.0 | 3.0 | 0.00 | 0.00 | 0.00 | 86 | 1016.0 |
| 20260904045003 | 72 | 190 | 0.0 | 3.0 | 0.00 | 0.00 | 0.00 | 86 | 1016.0 |
| 20260904044504 | 72 | 190 | 1.0 | 3.0 | 0.00 | 0.00 | 0.00 | 86 | 1016.0 |
| 20260904044003 | 72 | 205 | 1.0 | 2.0 | 0.00 | 0.00 | 0.00 | 87 | 1016.0 |
| 20260904043502 | 72 | 205 | 0.0 | 2.0 | 0.00 | 0.00 | 0.00 | 86 | 1015.9 |
| 20260904043003 | 72 | 205 | 0.0 | 2.0 | 0.00 | 0.00 | 0.00 | 86 | 1016.0 |
| 20260904042504 | 72 | 205 | 0.0 | 2.0 | 0.00 | 0.00 | 0.00 | 86 | 1015.9 |
| 20260904042003 | 73 | 205 | 0.0 | 2.0 | 0.00 | 0.00 | 0.00 | 86 | 1016.0 |
| 20260904041508 | 73 | 205 | 0.0 | 2.0 | 0.00 | 0.00 | 0.00 | 85 | 1016.0 |
| 20260904041002 | 73 | 205 | 0.0 | 2.0 | 0.00 | 0.00 | 0.00 | 85 | 1015.9 |
| 20260904040502 | 73 | 205 | 0.0 | 2.0 | 0.00 | 0.00 | 0.00 | 85 | 1015.9 |
| 20260904040004 | 73 | 205 | 1.0 | 2.0 | 0.00 | 0.00 | 0.00 | 85 | 1015.9 |
| 20260904035506 | 73 | 205 | 1.0 | 1.0 | 0.00 | 0.00 | 0.00 | 84 | 1015.8 |
| 20260904035003 | 73 | 135 | 0.0 | 2.0 | 0.00 | 0.00 | 0.00 | 84 | 1015.8 |
| 20260904034503 | 73 | 135 | 1.0 | 2.0 | 0.00 | 0.00 | 0.00 | 84 | 1015.8 |
| 20260904034003 | 73 | 135 | 0.0 | 1.0 | 0.00 | 0.00 | 0.00 | 84 | 1015.8 |
| 20260904033503 | 73 | 135 | 0.0 | 2.0 | 0.00 | 0.00 | 0.00 | 84 | 1015.8 |
| 20260904033003 | 73 | 135 | 1.0 | 2.0 | 0.00 | 0.00 | 0.00 | 84 | 1015.9 |
| 20260904032503 | 74 | 135 | 0.0 | 3.0 | 0.00 | 0.00 | 0.00 | 85 | 1016.0 |
| 20260904032003 | 74 | 135 | 1.0 | 3.0 | 0.00 | 0.00 | 0.00 | 84 | 1016.1 |
| 20260904031504 | 74 | 142 | 2.0 | 3.0 | 0.00 | 0.00 | 0.00 | 84 | 1016.0 |
| 20260904031004 | 74 | 123 | 0.0 | 2.0 | 0.00 | 0.00 | 0.00 | 84 | 1016.1 |
| 20260904030503 | 74 | 123 | 1.0 | 2.0 | 0.00 | 0.00 | 0.00 | 84 | 1016.1 |
| 20260904030007 | 74 | 120 | 0.0 | 2.0 | 0.00 | 0.00 | 0.00 | 84 | 1016.0 |
| 20260904025503 | 74 | 120 | 1.0 | 3.0 | 0.00 | 0.00 | 0.00 | 84 | 1016.0 |
| 20260904025003 | 74 | 138 | 1.0 | 3.0 | 0.00 | 0.00 | 0.00 | 84 | 1016.1 |
| 20260904024503 | 74 | 142 | 2.0 | 3.0 | 0.00 | 0.00 | 0.00 | 84 | 1016.1 |
| 20260904024003 | 74 | 143 | 1.0 | 2.0 | 0.00 | 0.00 | 0.00 | 85 | 1016.2 |
| 20260904023505 | 74 | 144 | 1.0 | 4.0 | 0.00 | 0.00 | 0.00 | 85 | 1016.2 |
| 20260904023008 | 74 | 144 | 2.0 | 4.0 | 0.00 | 0.00 | 0.00 | 85 | 1016.3 |
| 20260904022505 | 74 | 135 | 2.0 | 3.0 | 0.00 | 0.00 | 0.00 | 86 | 1016.3 |
| 20260904022002 | 74 | 141 | 1.0 | 2.0 | 0.00 | 0.00 | 0.00 | 87 | 1016.3 |
| 20260904021512 | 74 | 69 | 1.0 | 3.0 | 0.00 | 0.00 | 0.00 | 86 | 1016.3 |
| 20260904021003 | 74 | 69 | 1.0 | 3.0 | 0.00 | 0.00 | 0.00 | 86 | 1016.4 |
| 20260904020503 | 74 | 74 | 2.0 | 3.0 | 0.00 | 0.00 | 0.00 | 85 | 1016.3 |
| 20260904020004 | 74 | 132 | 1.0 | 3.0 | 0.00 | 0.00 | 0.00 | 85 | 1016.3 |
| 20260904015503 | 74 | 134 | 2.0 | 2.0 | 0.00 | 0.00 | 0.00 | 85 | 1016.4 |
| 20260904015003 | 74 | 70 | 0.0 | 2.0 | 0.00 | 0.00 | 0.00 | 84 | 1016.3 |
| 20260904014505 | 75 | 70 | 0.0 | 3.0 | 0.00 | 0.00 | 0.00 | 84 | 1016.3 |
| 20260904014003 | 75 | 70 | 1.0 | 3.0 | 0.00 | 0.00 | 0.00 | 84 | 1016.4 |
| 20260904013504 | 75 | 98 | 0.0 | 2.0 | 0.00 | 0.00 | 0.00 | 83 | 1016.4 |
| 20260904013004 | 75 | 139 | 0.0 | 2.0 | 0.00 | 0.00 | 0.00 | 82 | 1016.3 |
| 20260904012504 | 75 | 162 | 1.0 | 3.0 | 0.00 | 0.00 | 0.00 | 83 | 1016.1 |
| 20260904012004 | 75 | 155 | 1.0 | 3.0 | 0.00 | 0.00 | 0.00 | 84 | 1016.0 |
| 20260904011506 | 75 | 140 | 1.0 | 3.0 | 0.00 | 0.00 | 0.00 | 84 | 1016.1 |
| 20260904011003 | 75 | 214 | 1.0 | 2.0 | 0.00 | 0.00 | 0.00 | 83 | 1016.2 |
| 20260904010505 | 75 | 215 | 1.0 | 2.0 | 0.00 | 0.00 | 0.00 | 82 | 1016.2 |
| 20260904010004 | 75 | 217 | 1.0 | 2.0 | 0.00 | 0.00 | 0.00 | 82 | 1016.0 |
| 20260904005504 | 75 | 283 | 1.0 | 2.0 | 0.00 | 0.00 | 0.00 | 81 | 1016.1 |
| 20260904005003 | 75 | 64 | 0.0 | 2.0 | 0.00 | 0.00 | 0.00 | 82 | 1016.0 |
| 20260904004504 | 75 | 63 | 0.0 | 3.0 | 0.00 | 0.00 | 0.00 | 81 | 1016.0 |
| 20260904004005 | 75 | 63 | 1.0 | 4.0 | 0.00 | 0.00 | 0.00 | 81 | 1015.8 |
| 20260904003503 | 75 | 74 | 2.0 | 5.0 | 0.00 | 0.00 | 0.00 | 81 | 1015.9 |
| 20260904003006 | 76 | 72 | 3.0 | 5.0 | 0.00 | 0.00 | 0.00 | 80 | 1015.8 |
| 20260904002504 | 76 | 57 | 2.0 | 5.0 | 0.00 | 0.00 | 0.00 | 79 | 1016.0 |
| 20260904002004 | 76 | 65 | 3.0 | 7.0 | 0.00 | 0.00 | 0.00 | 78 | 1015.8 |
| 20260904001503 | 77 | 59 | 1.0 | 10.0 | 0.00 | 0.00 | 0.00 | 78 | 1015.9 |
| 20260904001003 | 77 | 57 | 4.0 | 10.0 | 0.00 | 0.00 | 0.00 | 77 | 1015.8 |
| 20260904000506 | 77 | 59 | 5.0 | 9.0 | 0.00 | 0.00 | 0.00 | 76 | 1016.0 |
| 20260904000007 | 78 | 74 | 6.0 | 11.0 | 0.00 | 0.00 | 0.00 | 75 | 1015.9 |
| 20260903235504 | 79 | 61 | 5.0 | 11.0 | 0.00 | 0.00 | 0.00 | 75 | 1015.9 |
| 20260903235004 | 79 | 65 | 4.0 | 14.0 | 0.00 | 0.00 | 0.00 | 73 | 1015.7 |
| 20260903234510 | 80 | 75 | 8.0 | 14.0 | 0.00 | 0.00 | 0.00 | 71 | 1015.6 |
| 20260903234004 | 82 | 47 | 5.0 | 10.0 | 0.00 | 0.00 | 0.00 | 69 | 1016.0 |
| 20260903233505 | 85 | 45 | 5.0 | 10.0 | 0.00 | 0.00 | 0.00 | 63 | 1015.9 |
| 20260903233007 | 89 | 51 | 2.0 | 3.0 | 0.00 | 0.00 | 0.00 | 63 | 1015.6 |
| 20260903232504 | 90 | 213 | 0.0 | 2.0 | 0.00 | 0.00 | 0.00 | 60 | 1015.2 |
| 20260903232004 | 90 | 205 | 0.0 | 2.0 | 0.00 | 0.00 | 0.00 | 60 | 1015.0 |
| 20260903231506 | 91 | 252 | 0.0 | 2.0 | 0.00 | 0.00 | 0.00 | 59 | 1014.8 |
| 20260903231003 | 92 | 223 | 1.0 | 2.0 | 0.00 | 0.00 | 0.00 | 58 | 1014.8 |
| 20260903230503 | 92 | 230 | 1.0 | 3.0 | 0.00 | 0.00 | 0.00 | 57 | 1014.7 |
| 20260903230010 | 92 | 254 | 1.0 | 3.0 | 0.00 | 0.00 | 0.00 | 56 | 1014.7 |
| 20260903225505 | 92 | 205 | 1.0 | 2.0 | 0.00 | 0.00 | 0.00 | 57 | 1014.6 |
| 20260903225003 | 92 | 236 | 1.0 | 3.0 | 0.00 | 0.00 | 0.00 | 56 | 1014.7 |
| 20260903224507 | 93 | 217 | 1.0 | 3.0 | 0.00 | 0.00 | 0.00 | 55 | 1014.7 |
| 20260903224003 | 93 | 265 | 1.0 | 5.0 | 0.00 | 0.00 | 0.00 | 54 | 1014.7 |
| 20260903223502 | 93 | 240 | 2.0 | 5.0 | 0.00 | 0.00 | 0.00 | 54 | 1014.6 |
| 20260903223008 | 93 | 211 | 2.0 | 9.0 | 0.00 | 0.00 | 0.00 | 52 | 1014.5 |
| 20260903222503 | 93 | 315 | 1.0 | 9.0 | 0.00 | 0.00 | 0.00 | 53 | 1014.5 |
| 20260903222004 | 93 | 215 | 2.0 | 9.0 | 0.00 | 0.00 | 0.00 | 54 | 1014.5 |
| 20260903221512 | 93 | 211 | 2.0 | 9.0 | 0.00 | 0.00 | 0.00 | 53 | 1014.5 |
| 20260903221004 | 93 | 230 | 4.0 | 8.0 | 0.00 | 0.00 | 0.00 | 52 | 1014.6 |
| 20260903220505 | 93 | 215 | 3.0 | 7.0 | 0.00 | 0.00 | 0.00 | 53 | 1014.5 |
| 20260903220009 | 93 | 329 | 2.0 | 8.0 | 0.00 | 0.00 | 0.00 | 52 | 1014.4 |
| 20260903215504 | 93 | 313 | 2.0 | 8.0 | 0.00 | 0.00 | 0.00 | 52 | 1014.4 |
| 20260903215006 | 93 | 274 | 3.0 | 9.0 | 0.00 | 0.00 | 0.00 | 53 | 1014.4 |
| 20260903214506 | 94 | 306 | 4.0 | 9.0 | 0.00 | 0.00 | 0.00 | 51 | 1014.3 |
| 20260903214003 | 94 | 320 | 3.0 | 8.0 | 0.00 | 0.00 | 0.00 | 51 | 1014.3 |
| 20260903213503 | 94 | 305 | 3.0 | 8.0 | 0.00 | 0.00 | 0.00 | 51 | 1014.2 |
| 20260903213018 | 94 | 232 | 2.0 | 10.0 | 0.00 | 0.00 | 0.00 | 52 | 1014.1 |
| 20260903212503 | 94 | 216 | 3.0 | 13.0 | 0.00 | 0.00 | 0.00 | 52 | 1014.2 |
| 20260903212003 | 94 | 308 | 4.0 | 9.0 | 0.00 | 0.00 | 0.00 | 49 | 1014.3 |
| 20260903211508 | 94 | 208 | 4.0 | 9.0 | 0.00 | 0.00 | 0.00 | 50 | 1014.2 |
| 20260903211005 | 94 | 218 | 2.0 | 8.0 | 0.00 | 0.00 | 0.00 | 51 | 1014.2 |
| 20260903210504 | 94 | 184 | 3.0 | 8.0 | 0.00 | 0.00 | 0.00 | 52 | 1014.2 |
| 20260903210014 | 94 | 267 | 4.0 | 8.0 | 0.00 | 0.00 | 0.00 | 51 | 1014.2 |
| 20260903205503 | 94 | 242 | 3.0 | 10.0 | 0.00 | 0.00 | 0.00 | 52 | 1014.2 |
| 20260903205003 | 94 | 219 | 4.0 | 11.0 | 0.00 | 0.00 | 0.00 | 50 | 1014.3 |
| 20260903204509 | 94 | 318 | 3.0 | 11.0 | 0.00 | 0.00 | 0.00 | 50 | 1014.3 |
| 20260903204003 | 94 | 268 | 4.0 | 9.0 | 0.00 | 0.00 | 0.00 | 52 | 1014.2 |
| 20260903203507 | 94 | 5 | 3.0 | 8.0 | 0.00 | 0.00 | 0.00 | 50 | 1014.1 |
| 20260903203019 | 94 | 9 | 4.0 | 10.0 | 0.00 | 0.00 | 0.00 | 51 | 1014.1 |
| 20260903202504 | 94 | 205 | 6.0 | 10.0 | 0.00 | 0.00 | 0.00 | 53 | 1014.1 |
| 20260903202003 | 94 | 192 | 5.0 | 10.0 | 0.00 | 0.00 | 0.00 | 51 | 1014.1 |
| 20260903201507 | 94 | 222 | 3.0 | 10.0 | 0.00 | 0.00 | 0.00 | 52 | 1014.2 |
| 20260903201002 | 94 | 288 | 4.0 | 10.0 | 0.00 | 0.00 | 0.00 | 51 | 1014.2 |
| 20260903200504 | 94 | 331 | 4.0 | 10.0 | 0.00 | 0.00 | 0.00 | 52 | 1014.3 |
| 20260903200015 | 94 | 189 | 3.0 | 8.0 | 0.00 | 0.00 | 0.00 | 53 | 1014.5 |
| 20260903195504 | 94 | 218 | 3.0 | 8.0 | 0.00 | 0.00 | 0.00 | 52 | 1014.6 |
| 20260903195003 | 93 | 31 | 3.0 | 7.0 | 0.00 | 0.00 | 0.00 | 53 | 1014.7 |
| 20260903194532 | 93 | 350 | 4.0 | 7.0 | 0.00 | 0.00 | 0.00 | 55 | 1014.8 |
| 20260903194008 | 93 | 221 | 4.0 | 7.0 | 0.00 | 0.00 | 0.00 | 54 | 1014.9 |
| 20260903193503 | 94 | 210 | 3.0 | 8.0 | 0.00 | 0.00 | 0.00 | 53 | 1015.2 |
| 20260903193010 | 94 | 298 | 3.0 | 11.0 | 0.00 | 0.00 | 0.00 | 55 | 1015.2 |
| 20260903192505 | 94 | 208 | 4.0 | 11.0 | 0.00 | 0.00 | 0.00 | 52 | 1015.3 |
| 20260903192003 | 93 | 205 | 3.0 | 8.0 | 0.00 | 0.00 | 0.00 | 53 | 1015.5 |
| 20260903191512 | 93 | 298 | 5.0 | 8.0 | 0.00 | 0.00 | 0.00 | 53 | 1015.6 |